Location: Carri�res
(48.9069°N, 2.1792°E)
Time: 03:46:38
(UTC+00:00)

X-37B - Visible Passes

Search period start: 02 October 2022 00:00
Search period end: 12 October 2022 00:00
Orbit: 329 x 342 km, 45.0° (Epoch: 29 September)

Date Brightness Start Highest point End Pass type
(mag) Time Alt. Az. Time Alt. Az. Time Alt. Az.
02 Oct 2.1 03:50:05 26° SE 03:50:05 26° SE 03:51:43 10° ESE visible
02 Oct 2.1 05:21:50 10° WSW 05:24:05 20° SSW 05:26:19 10° SSE visible
03 Oct 1.7 04:09:46 28° S 04:09:46 28° S 04:11:53 10° SE visible
04 Oct 2.0 04:29:33 20° SSW 04:29:33 20° SSW 04:31:46 10° SSE visible
05 Oct 2.7 04:49:24 12° SW 04:49:39 12° SSW 04:50:48 10° S visible
